Zurück zum Katalog

STARLINK-34546

AktivKommunikationVLEO
NORAD 64718·PAYLOAD·🇺🇸 United States

Gestartet Jun 28, 2025 von Vandenberg Space Force Base

Loading…

Nächste Überflüge (nächste 24 Stunden)

TLE

AktuellSource: CelesTrak SupGP

Epoche: Sep 14, 2026, 15:22 UTC

1 64718C 25142Y   26257.64076389  .00067594  00000+0  23526-2 0  2572
2 64718  70.0013 196.5315 0003041 272.0685  18.7782 15.29528915    18

Verfolge STARLINK-34546 in Echtzeit mit AllMySat

Download on the App Store